Lapse_Rate
7.3 6.9 7.3 7.8 8.1 8.2 8.2 8.3 8.3 7.9 8.1 8.5 8.4 8.2 8.0 7.9 7.6 7.5 7.9 8.0 7.9 8.0 8.2 8.1 8.1 8.4 8.4 8.3 8.3 8.3 8.2 8.1 8.3 8.2 8.1 8.0 7.9 7.9 7.6 7.5 7.5 7.3 7.1 6.9
6.9 7.6 7.6 7.5 7.7 7.7 7.6 7.7 7.8 8.0 8.3 8.9 8.6 7.5 7.2 7.2 7.3 7.2 7.4 7.5 7.2 7.5 7.7 8.0 8.0 8.1 8.5 8.4 8.4 8.5 8.4 8.4 8.5 8.4 8.3 8.3 8.2 8.1 8.0 7.9 7.8 7.7 7.4 7.2
7.6 7.9 7.4 7.2 7.4 7.5 7.8 7.9 7.9 8.1 8.4 7.9 7.5 7.2 6.9 6.7 6.4 6.7 7.1 7.5 7.8 7.9 8.0 7.7 7.5 8.2 8.4 8.5 8.5 8.5 8.6 8.6 8.5 8.4 8.4 8.5 8.4 8.2 8.2 8.2 8.1 8.0 7.8 7.6
7.6 7.5 7.6 8.1 7.9 7.9 8.1 8.2 8.3 8.4 8.4 7.4 7.1 6.8 7.0 7.0 6.0 6.4 6.8 6.9 7.3 7.6 7.7 7.7 7.9 8.2 8.3 8.4 8.4 8.7 8.6 8.7 8.8 8.5 8.3 8.4 8.3 8.3 8.2 8.2 8.2 8.3 8.2 7.9
7.1 7.6 7.9 8.0 7.8 7.8 8.1 8.5 8.0 7.8 7.7 7.2 6.6 6.9 7.9 7.0 6.2 6.6 6.5 6.5 6.9 7.4 7.6 7.8 7.9 7.8 7.9 8.1 8.4 8.5 8.7 8.8 8.8 8.7 8.4 8.4 8.3 8.3 8.3 8.3 8.3 8.4 8.3 8.1
6.9 7.2 7.7 8.1 7.4 7.2 7.7 8.7 7.2 7.0 6.8 6.6 6.5 7.3 7.7 6.5 6.4 7.0 6.1 6.4 6.8 7.1 7.2 7.7 7.8 7.5 7.5 7.7 8.1 8.2 8.6 8.8 8.8 8.8 8.8 8.6 8.4 8.3 8.1 7.9 7.9 8.0 8.0 7.9
6.8 7.2 7.8 8.7 7.8 7.3 7.8 7.8 6.0 6.3 6.6 6.4 6.7 6.7 6.7 6.7 6.6 6.4 6.3 6.5 6.8 6.8 6.8 6.7 7.3 7.7 7.8 7.7 7.8 8.0 8.0 8.3 8.6 8.8 8.8 7.9 7.4 7.6 8.2 8.0 7.9 7.7 7.9 7.8
6.7 6.6 7.0 7.7 7.9 7.8 7.1 6.7 6.6 6.6 6.5 6.9 7.0 6.8 6.6 6.7 6.7 6.3 6.9 7.1 7.3 7.3 7.2 7.0 6.8 7.2 7.5 7.5 7.7 8.0 8.0 8.1 8.2 8.3 8.3 7.8 7.7 8.0 8.4 8.4 8.1 7.8 7.8 7.6
7.5 7.6 7.6 7.6 7.3 6.7 6.7 6.8 6.7 7.1 7.2 7.0 7.0 6.9 6.9 6.6 6.4 7.2 7.1 7.2 7.1 6.8 6.9 7.0 7.0 6.9 7.5 7.6 7.6 7.9 7.9 7.9 7.9 8.1 8.3 8.2 8.0 8.2 8.1 8.0 8.0 7.9 7.3 6.8
7.3 7.6 7.5 7.3 7.3 6.8 7.1 7.2 7.1 7.0 7.0 7.0 6.9 6.7 6.7 6.7 6.7 6.8 6.9 7.1 7.0 6.9 6.5 6.6 6.8 6.9 7.1 7.5 7.5 7.8 8.1 8.2 7.9 7.6 7.9 7.7 7.6 7.8 7.6 7.5 7.2 6.7 6.5 6.4
7.8 7.6 7.8 7.7 6.7 6.5 7.1 6.8 6.8 7.0 6.7 6.7 6.6 6.4 6.4 6.5 6.6 6.7 6.7 6.7 6.9 7.0 6.8 6.2 6.6 6.6 6.8 6.8 6.9 7.0 7.5 7.7 7.6 7.4 7.1 7.0 7.0 7.1 6.7 6.7 6.3 6.2 6.1 5.6
7.4 6.9 7.2 7.1 6.8 6.7 6.9 6.8 6.6 6.8 6.5 6.4 6.4 6.4 6.5 6.6 6.7 6.7 6.7 6.9 7.0 7.2 7.0 6.8 6.3 6.3 6.5 6.5 6.7 6.6 6.7 6.8 6.8 6.7 6.4 6.9 6.3 6.1 6.2 6.2 6.1 6.1 6.1 6.2
7.1 7.2 7.3 6.9 6.4 6.8 6.8 6.8 6.6 6.5 6.5 6.5 6.4 6.5 6.6 6.6 6.6 6.7 6.7 6.5 6.3 6.4 6.3 6.7 6.7 6.1 6.0 5.6 5.2 5.3 6.5 6.7 6.5 6.8 6.8 6.6 6.4 6.5 6.2 6.3 6.0 6.3 6.0 5.9
6.8 6.8 6.4 6.7 6.6 6.8 6.8 6.7 6.5 6.5 6.6 6.5 6.5 6.6 6.6 6.5 6.6 7.1 7.5 7.3 6.9 6.4 6.4 6.5 6.5 6.4 6.4 5.5 5.9 5.4 5.3 5.4 5.5 6.0 6.0 5.9 6.0 5.8 5.8 5.7 5.7 5.7 5.8 5.7
6.7 6.4 6.3 6.6 6.6 6.8 6.8 6.7 6.6 6.6 6.5 6.4 6.5 6.4 6.7 6.9 7.3 7.3 6.9 7.0 6.9 6.5 6.6 6.6 6.8 6.6 6.3 5.8 5.9 5.3 5.4 5.2 5.2 5.6 5.6 5.6 5.4 5.2 5.0 5.2 5.1 5.1 5.0 5.0
6.8 6.5 6.9 6.9 6.9 7.0 6.9 6.9 6.8 6.7 6.6 6.3 6.3 6.4 6.7 7.1 6.8 6.8 6.2 6.3 6.5 6.4 6.4 6.3 6.6 6.6 6.4 6.4 6.5 6.1 6.0 5.3 5.1 5.0 5.3 5.2 5.4 5.4 5.1 4.8 4.7 4.7 4.6 4.4
7.0 6.7 7.0 6.9 6.9 7.1 7.2 7.1 6.9 6.9 6.6 6.7 6.4 6.2 6.3 6.5 6.2 6.1 6.1 6.2 6.0 5.9 6.1 6.2 6.2 6.1 6.2 6.0 5.7 5.7 5.6 5.6 5.5 5.3 5.3 5.1 4.6 4.6 4.5 4.5 4.5 4.5 4.3 4.2
7.2 7.2 6.9 6.8 6.7 6.9 6.9 6.8 6.9 6.8 6.6 6.3 6.1 6.0 5.8 5.7 5.8 5.6 5.5 5.5 5.3 5.1 5.1 5.3 5.4 5.3 5.4 5.2 5.2 5.1 5.1 4.9 4.8 4.7 4.6 4.4 4.2 4.2 4.2 4.1 3.9 3.8 3.9 4.0
7.1 7.1 7.0 6.8 6.6 6.7 6.8 6.6 6.6 6.4 6.2 5.9 5.8 5.7 5.4 5.2 5.0 4.9 4.7 4.5 4.3 4.4 4.7 4.8 4.8 4.6 4.6 4.5 4.4 4.4 4.4 4.4 4.4 4.3 4.2 4.2 4.1 4.2 4.1 4.0 3.8 3.7 3.7 3.6
6.4 6.3 6.3 6.3 6.4 6.3 6.0 6.0 5.9 5.8 5.5 5.4 5.2 4.9 4.8 4.6 4.4 4.3 4.1 4.0 4.0 4.1 4.2 4.1 4.0 3.8 3.8 3.8 3.8 3.8 3.8 3.9 4.0 4.0 4.0 4.0 4.0 4.0 4.0 3.9 3.8 3.7 3.6 3.6
6.0 5.9 5.7 5.7 5.5 5.4 5.3 5.1 5.0 4.8 4.8 4.7 4.6 4.3 4.3 4.3 4.1 3.9 3.6 3.6 3.7 3.7 3.7 3.6 3.7 3.7 3.7 3.7 3.8 3.9 3.8 3.8 3.9 3.9 3.9 3.9 3.7 3.7 3.6 3.5 3.5 3.6 3.6 3.6
5.3 5.0 5.0 5.0 4.9 4.9 4.7 4.6 4.4 4.4 4.4 4.3 4.1 4.1 4.1 4.0 4.0 3.9 3.8 3.8 3.9 3.9 3.9 3.9 3.9 3.9 3.9 3.8 3.8 3.7 3.7 3.7 3.7 3.7 3.7 3.7 3.8 3.8 3.7 3.6 3.5 3.4 3.3 3.2
4.7 4.6 4.5 4.5 4.4 4.4 4.4 4.2 4.1 4.0 4.0 4.1 4.2 4.2 4.2 4.2 4.1 4.2 4.2 4.2 4.2 4.3 4.3 4.2 4.3 4.4 4.3 4.3 4.2 4.1 4.0 3.9 3.9 3.8 3.7 3.7 3.6 3.5 3.4 3.2 3.2 3.1 3.0 2.9
4.3 4.3 4.3 4.3 4.2 4.2 4.1 4.2 4.3 4.3 4.3 4.4 4.3 4.2 4.4 4.5 4.5 4.5 4.5 4.5 4.4 4.3 4.3 4.3 4.3 4.2 4.1 4.0 3.9 3.9 3.9 3.8 3.6 3.5 3.4 3.2 3.1 3.0 3.0 2.9 2.9 2.9 2.9 3.1
4.1 4.1 4.1 4.2 4.2 4.2 4.3 4.5 4.7 4.6 4.6 4.7 4.6 4.7 4.7 4.7 4.7 4.6 4.5 4.4 4.2 4.0 3.9 3.8 3.8 3.8 3.7 3.7 3.6 3.5 3.4 3.3 3.2 3.1 3.1 3.0 3.0 3.1 3.2 3.4 3.7 3.9 3.9 3.9
4.5 4.6 4.6 4.7 4.8 4.8 4.8 4.6 4.7 4.8 4.8 4.7 4.7 4.7 4.7 4.6 4.5 4.3 4.2 4.1 4.0 4.0 3.9 3.8 3.7 3.6 3.5 3.5 3.4 3.3 3.2 3.3 3.4 3.6 3.8 4.0 4.2 4.3 4.3 4.3 4.3 4.2 4.1 4.1
4.5 4.6 4.7 4.7 4.7 4.7 4.8 4.8 4.9 4.9 4.9 4.9 5.0 4.9 4.9 4.7 4.6 4.5 4.5 4.4 4.3 4.3 4.2 4.2 4.3 4.3 4.4 4.6 4.7 4.8 4.8 4.8 4.8 4.7 4.6 4.5 4.4 4.4 4.3 4.3 4.3 4.4 4.5 4.7
Wind_Speed
7 8 3 6 7 10 13 14 12 14 13 10 10 10 11 12 13 12 13 14 15 14 10 7 12 14 17 18 18 19 20 20 21 19 19 19 18 19 19 19 19 20 20 20
13 7 7 10 12 11 12 11 12 12 15 13 6 7 7 11 14 16 17 17 16 15 18 11 9 12 15 17 17 18 19 21 19 19 19 19 18 18 18 19 20 19 20 20
11 9 7 10 15 16 14 15 13 13 6 8 7 8 9 11 10 12 13 14 15 17 17 16 11 9 12 16 16 17 18 19 19 19 19 20 19 20 20 20 18 20 19 19
7 1 10 6 1 4 10 13 13 11 5 7 8 10 12 11 7 12 14 16 16 15 16 16 14 15 13 13 15 17 18 18 19 19 19 19 19 20 19 17 19 18 18 19
5 9 13 15 11 10 9 8 3 0 3 7 9 11 12 8 13 14 13 14 15 17 18 18 17 15 13 14 15 17 17 18 18 19 18 18 19 19 16 16 15 15 14 15
6 11 10 6 4 4 3 7 8 5 5 7 10 7 7 16 15 16 16 14 15 17 17 19 20 19 17 15 15 16 16 17 16 17 17 17 16 15 13 13 13 6 7 6
12 9 7 3 5 2 11 5 3 6 7 9 9 10 15 15 13 14 15 15 16 15 14 16 18 19 18 16 14 14 11 12 14 15 15 14 13 13 13 7 9 8 9 7
9 6 15 8 5 7 8 4 8 8 10 11 12 14 14 14 12 14 15 15 16 14 14 15 17 18 18 15 16 11 9 8 2 1 1 7 7 7 8 9 10 8 10 9
10 8 4 2 7 7 8 8 10 11 12 11 11 13 16 13 12 13 15 13 13 13 13 14 15 15 17 16 15 13 8 8 8 10 9 8 7 9 8 7 6 7 6 8
1 5 1 10 2 12 10 10 10 12 12 13 13 13 14 13 10 11 12 13 13 12 13 15 15 15 13 14 12 12 11 10 9 9 11 11 8 6 6 6 6 7 8 7
10 11 10 1 12 12 11 12 13 13 12 12 13 13 12 10 11 11 11 12 11 11 11 14 14 14 13 13 10 11 12 11 10 8 9 13 12 8 6 8 6 6 7 5
4 10 7 9 12 13 11 13 13 14 13 12 12 13 14 9 10 11 11 11 10 11 13 14 14 15 14 12 10 8 11 9 9 8 7 9 11 12 26 23 23 23 23 11
5 9 8 9 11 12 10 12 12 11 11 12 12 11 11 10 11 11 11 11 11 11 12 14 14 15 16 13 10 8 10 10 10 9 8 8 8 10 14 20 28 27 27 24
10 11 0 9 7 10 10 10 9 10 10 10 11 10 10 10 11 12 12 12 11 11 13 13 14 14 13 12 11 9 13 16 10 10 9 8 10 9 10 12 13 13 20 20
10 8 6 6 6 8 7 8 6 8 8 9 10 10 10 11 12 12 13 10 10 11 15 13 13 14 13 12 15 15 12 8 9 11 11 9 10 11 10 13 12 11 11 14
10 6 3 3 4 7 8 8 7 7 7 9 10 11 12 12 13 12 13 12 12 13 14 14 14 14 12 13 14 13 13 18 13 10 9 9 9 10 10 10 10 9 7 7
8 6 8 7 6 7 8 7 7 7 8 10 11 10 11 11 13 14 12 13 14 14 15 15 15 13 15 15 14 10 10 11 16 11 10 10 10 11 10 9 9 9 9 11
4 4 5 5 5 5 7 7 8 9 10 11 11 11 11 12 13 12 12 11 12 15 16 15 14 14 15 14 13 10 10 10 10 10 10 10 10 10 9 9 10 9 9 10
7 7 7 8 8 9 9 9 10 11 11 11 12 13 12 13 13 12 13 13 14 15 15 14 17 16 15 16 13 10 10 11 11 10 10 11 9 9 9 9 9 9 8 8
10 10 11 12 12 11 11 10 11 11 11 11 12 12 13 12 10 11 13 15 13 10 13 15 14 14 14 15 14 10 11 11 11 10 9 10 9 9 9 11 9 8 8 7
10 11 12 12 12 11 11 9 11 12 11 12 13 12 12 12 14 11 11 10 13 12 12 14 13 10 10 11 11 10 10 10 10 9 9 8 8 8 8 8 8 7 7 6
9 10 11 11 12 13 12 11 12 11 12 11 10 8 9 10 11 12 12 10 8 12 10 10 10 13 10 12 10 10 10 10 9 8 8 8 7 7 7 7 7 6 6 6
9 10 10 11 12 12 12 12 11 12 11 11 11 11 10 8 8 7 7 11 8 11 9 9 12 13 13 10 9 9 10 10 9 8 7 7 7 6 6 6 5 5 5 5
10 10 10 10 9 10 11 10 10 10 10 11 10 10 7 6 7 7 7 9 10 10 10 9 11 13 12 8 8 8 8 8 7 7 6 7 5 5 5 5 5 5 5 4
9 8 8 7 8 7 8 8 8 8 8 9 9 9 10 8 7 6 6 7 10 8 7 9 10 10 8 7 8 7 6 6 6 6 5 5 5 4 5 4 5 5 4 4
7 6 6 8 6 5 5 4 5 5 4 5 5 6 6 5 5 5 5 5 6 6 6 6 6 6 6 6 6 6 5 6 5 4 4 4 4 4 4 5 5 4 4 4
6 5 5 5 5 5 5 4 4 4 4 4 4 4 4 4 4 4 5 5 5 5 5 5 5 6 6 6 5 5 5 4 4 4 4 4 4 4 4 5 5 6 5 5
Wind_Direction
239 271 317 308 250 243 243 243 253 242 241 264 280 283 293 313 307 298 299 312 312 317 302 233 211 215 217 218 210 211 213 212 215 214 214 214 214 211 210 212 212 215 215 217
278 261 274 270 261 250 263 270 270 271 266 269 302 20 331 318 331 330 321 324 324 317 313 321 270 215 220 222 216 207 214 217 216 214 215 215 213 213 213 213 215 213 217 218
265 259 290 272 250 251 250 239 244 247 285 327 272 315 316 316 340 343 329 326 325 316 312 311 320 296 250 225 221 214 215 220 218 215 215 215 213 212 214 214 212 218 220 219
269 245 243 233 346 300 244 254 254 265 325 346 312 305 301 300 356 346 339 332 332 332 319 303 303 301 295 265 228 214 216 219 217 214 216 214 213 213 212 212 213 213 217 219
238 236 269 291 276 251 241 248 94 316 25 16 344 306 280 42 9 340 331 330 333 336 335 320 309 301 293 285 249 226 216 219 218 214 213 212 213 211 209 209 210 214 216 218
214 246 250 251 71 342 270 188 90 58 29 357 343 317 327 354 343 333 334 334 348 341 343 347 345 334 312 287 268 248 224 221 223 220 212 212 212 214 208 206 205 172 91 60
225 244 252 312 139 130 224 97 48 8 358 352 332 328 318 314 315 330 343 350 358 4 4 357 343 329 307 288 274 278 265 238 219 221 215 212 197 205 200 142 111 99 95 77
229 240 241 276 272 251 48 12 5 6 2 343 333 319 319 313 326 348 349 359 6 6 8 4 358 348 333 353 339 335 360 7 29 255 159 210 151 120 124 125 113 108 104 91
198 218 174 190 84 53 33 1 357 351 351 352 339 336 324 336 345 351 351 360 6 13 13 9 0 4 348 344 342 345 13 39 50 59 51 62 121 126 106 101 123 130 124 115
53 250 56 239 153 57 22 3 6 4 355 353 349 338 339 335 356 344 356 0 3 9 28 11 356 1 349 342 2 19 24 34 50 59 68 59 50 29 77 120 131 131 124 122
262 270 280 296 55 31 2 355 1 359 358 355 350 344 348 347 354 352 359 3 12 10 11 35 359 356 355 351 17 39 36 26 29 51 55 79 56 46 52 50 76 112 95 117
268 40 352 30 13 20 1 0 351 350 350 354 357 346 347 7 1 359 9 6 15 16 36 24 24 360 3 360 11 67 61 43 32 37 52 64 80 72 64 68 75 84 83 85
33 2 342 333 61 28 16 357 358 340 0 357 5 6 1 13 10 2 7 18 23 26 29 36 24 15 7 8 21 360 78 81 74 30 50 61 83 84 85 72 74 73 84 88
27 354 74 25 355 1 3 0 0 18 24 18 20 25 24 29 30 24 21 16 20 37 40 38 34 24 11 21 36 42 59 62 69 80 64 59 66 70 84 87 83 76 66 85
5 339 15 24 16 13 10 3 30 39 35 41 40 46 43 46 44 38 27 18 32 37 45 41 35 32 28 34 49 49 51 59 63 76 75 76 77 77 75 81 84 86 87 78
325 314 355 25 13 18 13 16 34 43 53 61 60 60 63 67 61 48 49 29 32 35 39 41 35 19 26 43 50 55 53 50 51 57 69 70 75 74 76 77 79 80 83 92
346 6 0 348 10 31 38 41 55 67 74 73 69 66 70 68 65 55 43 40 38 37 35 36 35 25 34 33 45 51 53 55 54 55 54 60 61 66 66 71 71 66 59 53
12 17 6 14 30 64 69 67 74 79 81 81 80 73 65 58 58 50 45 40 43 41 36 33 34 34 33 41 47 52 54 56 57 57 61 62 70 74 74 79 82 82 78 67
34 48 50 57 63 74 80 80 82 86 85 84 81 73 68 63 60 54 45 43 40 33 21 26 33 39 40 36 48 48 54 62 65 62 60 60 58 63 68 69 70 69 71 72
63 64 67 68 67 78 82 80 85 78 75 79 79 73 66 56 63 68 61 54 42 40 33 20 36 37 41 40 49 53 53 60 66 66 57 60 64 68 71 67 71 71 69 67
77 75 77 81 81 78 80 83 83 78 76 75 78 75 71 61 46 41 57 54 33 32 38 42 31 34 39 37 46 48 50 54 55 57 57 61 63 61 61 63 60 60 63 61
83 81 80 82 82 76 71 72 73 72 68 64 65 75 85 86 84 69 43 43 42 30 41 41 37 32 36 47 52 52 52 53 55 56 56 57 62 62 59 61 58 54 55 53
86 86 85 84 85 85 79 73 71 74 76 72 71 71 65 60 45 48 51 33 41 30 47 43 31 33 42 46 50 54 55 54 54 53 55 53 52 57 57 45 56 47 46 27
85 84 86 89 91 89 85 87 89 90 86 77 60 37 43 72 63 56 57 49 46 56 47 35 31 34 41 46 47 46 41 44 47 47 59 48 52 55 51 38 32 29 26 20
83 88 93 99 95 95 104 108 99 89 80 71 64 64 61 51 58 44 38 52 34 28 48 38 36 39 41 43 37 39 50 49 21 32 34 35 30 31 23 27 19 11 356 3
86 82 76 63 69 73 66 63 71 72 85 81 67 62 60 57 59 55 67 44 43 36 37 50 26 20 39 35 33 24 22 26 13 32 1 17 11 14 10 360 350 351 355 352
97 119 108 86 66 50 46 54 83 83 76 82 82 72 72 73 65 55 47 32 39 25 33 27 34 28 9 359 15 6 360 6 51 351 340 348 344 351 355 342 338 336 330 327